[[{"header":{"parameterUnit":"m.s-1","parameterCategory":2,"la1":30.2991,"la2":30.254,"lo1":-89.0895,"lo2":-89.0444,"dy":0.0017,"dx":0.0017,"nx":28,"ny":28,"refTime":"2025-02-28T09:00:00:Z","depth":"0","parameterNumber":2,"parameterNumberName":"U-component_of_CURRENTS"},"data":[0,0,0,0,0,0,0,0,0,0,0,0,0,0,0,0,0,0,0,0,0,0,0,0,0,0,0,0,0,0,0,0,0,0,0,0,0,0,0,0,0,0,0,0,0,0,0,0,0,0,0,0,0,0,0,0,0,0,-0.2375,-0.2375,0,-0.2331,-0.233,-0.2329,-0.2276,-0.2276,-0.2275,-0.2275,-0.2212,-0.2211,-0.221,0,0,0,0,0,0,0,0,0,0,0,0,0,-0.236,-0.236,-0.2375,-0.2375,-0.2375,-0.2331,-0.233,-0.2329,-0.2276,-0.2276,-0.2275,-0.2275,-0.2213,-0.2211,-0.221,0,0,0,0,0,0,0,0,0,0,0,0,0,-0.2343,-0.236,-0.2375,-0.2346,-0.2343,-0.2331,-0.233,-0.2329,-0.2276,-0.2276,-0.2275,-0.2274,-0.2213,-0.2211,-0.2209,-0.2212,0,0,-0.2204,-0.2203,0,0,0,0,0,0,0,0,-0.2344,-0.2343,-0.2351,-0.2348,-0.2345,-0.2312,-0.2302,-0.229,-0.2277,-0.2298,-0.2275,-0.2274,-0.2247,-0.2242,-0.223,-0.221,-0.2207,-0.2204,-0.2203,-0.2202,-0.2201,0,0,0,0,0,0,0,-0.2345,-0.2344,-0.2354,-0.2351,-0.2347,-0.2317,-0.2313,-0.2299,-0.2274,-0.2296,-0.2293,-0.2294,-0.2244,-0.2232,-0.2228,-0.2206,-0.2204,-0.2202,-0.2201,-0.22,-0.2199,-0.2201,0,0,0,0,0,0,-0.2362,-0.2346,-0.2355,-0.2353,-0.2347,-0.2318,-0.2314,-0.232,-0.2274,-0.2268,-0.2295,-0.2292,-0.2236,-0.2231,-0.2226,-0.2271,-0.2202,-0.22,-0.2199,-0.2198,-0.22,-0.2201,0,0,0,0,0,0,-0.2362,-0.2363,-0.2357,-0.2351,-0.2348,-0.232,-0.2326,-0.232,-0.2307,-0.2274,-0.2266,-0.2289,-0.2235,-0.2229,-0.2215,-0.2266,-0.2199,-0.2198,-0.2197,-0.2199,-0.22,-0.2333,0,0,0,0,0,0,-0.2362,-0.2364,-0.2367,-0.2352,-0.235,-0.2352,-0.2327,-0.2319,-0.231,-0.2306,-0.2267,-0.226,-0.2234,-0.2218,-0.2213,-0.2263,-0.2196,-0.2196,-0.2198,-0.22,-0.2327,-0.2339,-0.2349,0,0,0,0,0,-0.2361,-0.237,-0.2368,-0.2369,-0.2358,-0.2353,-0.2348,-0.2322,-0.2311,-0.2307,-0.2283,-0.2261,-0.2228,-0.2217,-0.2211,-0.2262,-0.2195,-0.2197,-0.22,-0.2322,-0.2336,-0.2348,0,0,0,0,0,0,-0.2355,-0.2366,-0.2363,-0.2372,-0.2366,-0.2345,-0.2338,-0.2328,-0.2306,-0.23,-0.2268,-0.226,-0.2269,-0.2239,-0.2228,-0.2264,-0.2211,-0.2212,-0.2306,-0.2319,-0.233,-0.2332,-0.2195,0,0,0,0,0,-0.2362,-0.2374,-0.2374,-0.2378,-0.2379,-0.2361,-0.2355,-0.2343,-0.2326,-0.2314,-0.2292,-0.2273,-0.2276,-0.2274,-0.2255,-0.2273,-0.2205,-0.2301,-0.2312,-0.2322,-0.2318,-0.223,-0.2232,-0.2209,-0.2209,-0.2209,0,0,-0.2358,-0.2367,-0.2371,-0.2379,-0.2369,-0.2394,-0.2354,-0.235,-0.2379,-0.2313,-0.233,-0.2303,-0.2284,-0.2306,-0.231,-0.2289,-0.23,-0.2325,-0.2334,-0.2325,-0.2232,-0.2234,-0.2236,-0.2211,-0.221,-0.221,0,0,-0.237,-0.2369,-0.239,-0.24,-0.2404,-0.2403,-0.2409,-0.2397,-0.2395,-0.2404,-0.238,-0.2384,-0.2363,-0.238,-0.2384,-0.2442,-0.2353,-0.2433,-0.2502,-0.2417,-0.2418,-0.2418,-0.2367,-0.2361,-0.2447,-0.2447,-0.2448,0,-0.2365,-0.2397,-0.239,-0.2424,-0.2435,-0.242,-0.2447,-0.2462,-0.2448,-0.2438,-0.2421,-0.2395,-0.241,-0.2444,-0.249,-0.2473,-0.2394,-0.2462,-0.2431,-0.2429,-0.2426,-0.2373,-0.2365,-0.2454,-0.2453,-0.2453,-0.2452,0,-0.2403,-0.2433,-0.2444,-0.2493,-0.2504,-0.2518,-0.2545,-0.2547,-0.254,-0.2535,-0.2529,-0.2524,-0.2498,-0.2535,-0.2548,-0.2557,-0.2499,-0.2449,-0.24,-0.2436,-0.2379,-0.2368,-0.2464,-0.2461,-0.2459,-0.2458,0,0,-0.2366,-0.2455,-0.2456,-0.2457,-0.2537,-0.2511,-0.26,-0.2616,-0.2596,-0.2616,-0.2584,-0.2665,-0.2615,-0.2618,-0.2619,-0.2597,-0.2577,-0.2532,-0.2525,-0.2487,-0.2383,-0.2316,-0.2297,-0.249,-0.2488,-0.2486,-0.2362,0,-0.2388,-0.2433,-0.2503,-0.2528,-0.2532,-0.2577,-0.2624,-0.2641,-0.264,-0.2604,-0.2631,-0.2595,-0.2663,-0.2623,-0.263,-0.2567,-0.2545,-0.2615,-0.2348,-0.2341,-0.2279,-0.2281,-0.2157,-0.203,-0.2351,-0.2349,-0.2347,0,-0.2404,-0.2412,-0.2452,-0.2472,-0.2476,-0.2507,-0.2493,-0.2537,-0.2556,-0.2544,-0.2551,-0.253,-0.2572,-0.2566,-0.2516,-0.2537,-0.2483,-0.2439,-0.243,-0.2306,-0.2251,-0.2036,-0.1996,-0.1984,-0.2329,-0.233,-0.2332,0,-0.2291,-0.2367,-0.2371,-0.2389,-0.2434,-0.244,-0.2462,-0.2493,-0.2498,-0.2484,-0.2454,-0.2463,-0.244,-0.2387,-0.2397,-0.241,-0.228,-0.2269,-0.2161,-0.2156,-0.197,-0.1951,-0.1883,-0.2185,-0.2185,-0.2185,-0.2186,0,-0.2268,-0.2251,-0.2299,-0.2275,-0.2235,-0.231,-0.2278,-0.2303,-0.2335,-0.2322,-0.2391,-0.2365,-0.238,-0.2342,-0.233,-0.2227,-0.2224,-0.2164,-0.2107,-0.2017,-0.2005,-0.1918,-0.1953,-0.2181,-0.2182,-0.2183,-0.2183,0,-0.2142,-0.2208,-0.2169,-0.2181,-0.2185,-0.2134,-0.219,-0.2163,-0.2214,-0.2201,-0.2198,-0.2264,-0.2215,-0.2225,-0.2131,-0.2124,-0.198,-0.1986,-0.1913,-0.185,-0.1734,-0.1781,-0.1643,-0.16,-0.1823,-0.1821,-0.1819,0,-0.2084,-0.2049,-0.2043,-0.2024,-0.2034,-0.2006,-0.2007,-0.2081,-0.2088,-0.2141,-0.2122,-0.2104,-0.2077,-0.1959,-0.1902,-0.1807,-0.1851,-0.1656,-0.168,-0.1704,-0.1714,-0.1769,-0.1748,-0.1498,-0.1494,-0.149,-0.1487,0,-0.191,-0.1916,-0.1883,-0.1856,-0.1846,-0.1839,-0.1856,-0.1854,-0.1947,-0.195,-0.1953,-0.1927,-0.1846,-0.1706,-0.1614,-0.1561,-0.1606,-0.1574,-0.1582,-0.1444,-0.1508,-0.1445,-0.165,-0.1453,-0.1457,-0.1459,-0.1461,-0.1462,-0.1761,-0.1716,-0.17,-0.1668,-0.167,-0.1669,-0.1631,-0.1677,-0.1675,-0.1667,-0.1738,-0.1653,-0.1566,-0.1409,-0.1358,-0.1234,-0.134,-0.1195,-0.1249,-0.1303,-0.1262,-0.1426,-0.1179,-0.1181,-0.1182,-0.1184,-0.1185,0,-0.1577,-0.1562,-0.1519,-0.1498,-0.1461,-0.1516,-0.1522,-0.148,-0.144,-0.1448,-0.1415,-0.1304,-0.1154,-0.1107,-0.0987,-0.0931,-0.0937,-0.0931,-0.0976,-0.0968,-0.106,-0.1048,-0.0779,-0.0779,-0.0779,-0.0779,-0.0779,-0.0779,-0.1484,-0.1398,-0.1399,-0.1299,-0.129,-0.1214,-0.1196,-0.1153,-0.1133,-0.1034,-0.0975,-0.0955,-0.0929,-0.0947,-0.0848,-0.0801,-0.0827,-0.0782,-0.0865,-0.0941,-0.0971,-0.0999,-0.0995,-0.072,-0.072,-0.0702,-0.0702,-0.0702]},{"header":{"parameterUnit":"m.s-1","parameterCategory":2,"la1":30.2991,"la2":30.254,"lo1":-89.0895,"lo2":-89.0444,"dy":0.0017,"dx":0.0017,"nx":28,"ny":28,"refTime":"2025-02-28T09:00:00:Z","depth":"0","parameterNumber":3,"parameterNumberName":"V-component_of_CURRENTS"},"data":[0,0,0,0,0,0,0,0,0,0,0,0,0,0,0,0,0,0,0,0,0,0,0,0,0,0,0,0,0,0,0,0,0,0,0,0,0,0,0,0,0,0,0,0,0,0,0,0,0,0,0,0,0,0,0,0,0,0,0.0074,0.0076,0,0.0201,0.0202,0.0203,0.0249,0.0249,0.0249,0.0249,0.0352,0.0355,0.0357,0,0,0,0,0,0,0,0,0,0,0,0,0,-0.0098,-0.0096,0.0074,0.0076,0.0078,0.02,0.0202,0.0203,0.0249,0.0249,0.0249,0.0248,0.0351,0.0354,0.0358,0,0,0,0,0,0,0,0,0,0,0,0,0,-0.0007,-0.0095,0.0074,0.0119,0.0124,0.02,0.0202,0.0203,0.0249,0.0249,0.0249,0.0248,0.035,0.0354,0.0358,0.0385,0,0,0.0371,0.0373,0,0,0,0,0,0,0,0,-0.0012,-0.0001,0.011,0.0116,0.0122,0.0213,0.018,0.0265,0.0249,0.0197,0.0249,0.0248,0.0306,0.0314,0.0332,0.039,0.0394,0.0371,0.0374,0.0376,0.0377,0,0,0,0,0,0,0,-0.0019,-0.0006,0.012,0.0112,0.012,0.0143,0.0155,0.0196,0.0246,0.0201,0.0206,0.0227,0.0309,0.0328,0.0335,0.0396,0.0371,0.0375,0.0377,0.0379,0.0463,0.0463,0,0,0,0,0,0,-0.0026,-0.0012,0.0116,0.0124,0.0059,0.0147,0.016,0.018,0.0247,0.0258,0.0227,0.0229,0.0321,0.033,0.0338,0.0358,0.0376,0.038,0.0382,0.0464,0.0463,0.0463,0,0,0,0,0,0,-0.0031,-0.0016,0.0111,0.0062,0.008,0.015,0.0172,0.0183,0.0204,0.0267,0.0277,0.0238,0.0321,0.0333,0.0366,0.0362,0.0381,0.0385,0.0464,0.0463,0.0463,0.0406,0,0,0,0,0,0,-0.0036,-0.0019,-0.0012,0.0062,0.0083,0.0148,0.0173,0.0185,0.0219,0.0222,0.028,0.0289,0.0322,0.0359,0.037,0.0369,0.0388,0.0464,0.0464,0.0463,0.0409,0.0404,0.04,0,0,0,0,0,-0.0043,-0.0028,-0.0012,0.0004,0.0092,0.0148,0.016,0.0207,0.0219,0.0225,0.026,0.0288,0.0364,0.0363,0.0375,0.0375,0.0464,0.0464,0.0463,0.041,0.0405,0.04,0,0,0,0,0,0,-0.0099,-0.0019,-0.0001,0.0037,0.0084,0.0157,0.0174,0.0204,0.0238,0.0239,0.0289,0.0301,0.0325,0.0359,0.0357,0.0397,0.0417,0.0419,0.0372,0.0368,0.0364,0.035,0.0392,0,0,0,0,0,-0.0107,-0.0078,-0.0005,0.0021,0.0044,0.0106,0.0134,0.0164,0.021,0.0225,0.0264,0.0303,0.0334,0.0357,0.0387,0.0417,0.0437,0.0423,0.0419,0.0415,0.0413,0.0427,0.0424,0.0461,0.0461,0.0461,0,0,-0.0122,-0.0074,-0.0058,0.001,0.005,0.0071,0.0121,0.016,0.0171,0.0231,0.025,0.0288,0.0336,0.036,0.0375,0.039,0.0416,0.0415,0.0411,0.041,0.0426,0.0423,0.0419,0.0461,0.0461,0.0461,0,0,-0.0142,-0.0096,-0.0084,-0.005,0.001,0.0048,0.0056,0.0123,0.0145,0.0174,0.0213,0.0253,0.0301,0.034,0.0364,0.0359,0.0387,0.0363,0.0342,0.0356,0.0352,0.035,0.0372,0.0372,0.0369,0.0368,0.0368,0,-0.0168,-0.0141,-0.0074,-0.006,-0.0041,0.0031,0.0032,0.007,0.0134,0.0151,0.0167,0.0242,0.0291,0.0327,0.0327,0.0351,0.0358,0.0356,0.0349,0.0347,0.0345,0.0369,0.0369,0.0366,0.0366,0.0366,0.0367,0,-0.018,-0.0167,-0.0157,-0.0121,-0.0093,-0.0077,-0.0018,0.0007,0.0042,0.0083,0.0122,0.0189,0.0234,0.0258,0.0296,0.0313,0.0321,0.0334,0.0358,0.0338,0.0364,0.0366,0.0362,0.0363,0.0363,0.0364,0,0,-0.0225,-0.0179,-0.018,-0.0189,-0.0129,-0.0113,-0.0088,-0.0046,-0.0042,0.0025,0.0035,0.0117,0.016,0.0191,0.0246,0.0275,0.0286,0.0297,0.0299,0.0313,0.0311,0.0351,0.0357,0.0285,0.0285,0.0285,0.0334,0,-0.0266,-0.0273,-0.0229,-0.0252,-0.0257,-0.0193,-0.0184,-0.0137,-0.009,-0.0063,0.0027,0.0055,0.0131,0.0148,0.0192,0.0255,0.0287,0.0272,0.0335,0.0337,0.037,0.036,0.0391,0.044,0.0336,0.0337,0.0337,0,-0.03,-0.0304,-0.033,-0.0333,-0.0329,-0.0328,-0.0307,-0.0286,-0.0214,-0.0179,-0.0114,-0.0049,0.0028,0.0078,0.0187,0.0166,0.0235,0.0288,0.0291,0.0349,0.038,0.0445,0.0447,0.0573,0.034,0.034,0.0339,0,-0.0377,-0.0382,-0.0413,-0.0411,-0.039,-0.0393,-0.0381,-0.0323,-0.0311,-0.025,-0.0234,-0.014,-0.0089,-0.0003,0.0151,0.0149,0.026,0.027,0.0375,0.0379,0.0431,0.044,0.056,0.0334,0.0334,0.0334,0.0333,0,-0.0438,-0.0466,-0.0456,-0.0473,-0.0519,-0.0475,-0.05,-0.0467,-0.0424,-0.0409,-0.03,-0.0262,-0.0111,-0.0008,0.0109,0.0259,0.0233,0.037,0.0392,0.0414,0.042,0.0553,0.0596,0.0335,0.0335,0.0335,0.0334,0,-0.0505,-0.0497,-0.054,-0.0545,-0.0552,-0.0583,-0.0575,-0.0585,-0.0534,-0.0513,-0.0497,-0.036,-0.022,-0.0054,0.0102,0.0213,0.0419,0.0403,0.0428,0.0452,0.0647,0.0684,0.08,0.0876,0.0499,0.05,0.0501,0,-0.0532,-0.0558,-0.0599,-0.063,-0.0632,-0.0663,-0.0677,-0.0643,-0.0641,-0.0558,-0.055,-0.041,-0.0275,-0.0018,0.0183,0.0386,0.0489,0.0527,0.0537,0.0666,0.0724,0.0742,0.0798,0.0587,0.0589,0.059,0.0591,0,-0.0582,-0.0596,-0.063,-0.0699,-0.0733,-0.077,-0.0782,-0.08,-0.0744,-0.0698,-0.0598,-0.0486,-0.0214,0.0047,0.0313,0.0438,0.0613,0.056,0.0686,0.0798,0.0832,0.0912,0.0552,0.0603,0.0602,0.0601,0.0601,0.06,-0.0611,-0.0655,-0.0699,-0.0764,-0.0811,-0.0855,-0.0876,-0.0859,-0.0838,-0.0735,-0.0625,-0.0389,-0.0044,0.0343,0.0475,0.0767,0.0728,0.0861,0.0894,0.0899,0.0981,0.0652,0.0733,0.0732,0.0732,0.0732,0.0731,0,-0.0639,-0.0688,-0.0756,-0.0832,-0.089,-0.0895,-0.0926,-0.0907,-0.0859,-0.0707,-0.0557,-0.0085,0.0252,0.0568,0.0944,0.11,0.113,0.1179,0.122,0.1261,0.0971,0.0986,0.1135,0.1135,0.1135,0.1135,0.1135,0.1135,-0.0653,-0.0722,-0.0764,-0.0872,-0.0923,-0.0967,-0.0978,-0.0916,-0.0802,-0.0509,-0.0203,0.0055,0.0541,0.1036,0.1382,0.1415,0.1557,0.1528,0.1606,0.1418,0.1391,0.1365,0.1393,0.1625,0.1625,0.1896,0.1898,0.19]}],[{"header":{"parameterUnit":"m.s-1","parameterCategory":2,"la1":30.2991,"la2":30.254,"lo1":-89.0895,"lo2":-89.0444,"dy":0.0017,"dx":0.0017,"nx":28,"ny":28,"refTime":"2025-02-28T09:00:00:Z","depth":"2","parameterNumber":2,"parameterNumberName":"U-component_of_CURRENTS"},"data":[0,0,0,0,0,0,0,0,0,0,0,0,0,0,0,0,0,0,0,0,0,0,0,0,0,0,0,0,0,0,0,0,0,0,0,0,0,0,0,0,0,0,0,0,0,0,0,0,0,0,0,0,0,0,0,0,0,0,-0.1741,-0.1741,0,-0.1809,-0.181,-0.1811,-0.1913,-0.1915,-0.1916,-0.1917,-0.194,-0.1939,-0.1939,0,0,0,0,0,0,0,0,0,0,0,0,0,-0.1689,-0.169,-0.1741,-0.1741,-0.1741,-0.1808,-0.181,-0.1812,-0.1913,-0.1915,-0.1916,-0.1917,-0.194,-0.1939,-0.1939,0,0,0,0,0,0,0,0,0,0,0,0,0,-0.1737,-0.169,-0.1741,-0.1794,-0.1799,-0.1808,-0.181,-0.1812,-0.1913,-0.1915,-0.1916,-0.1918,-0.194,-0.194,-0.1939,-0.1902,0,0,-0.1937,-0.1937,0,0,0,0,0,0,0,0,-0.1734,-0.174,-0.1786,-0.1791,-0.1796,-0.1848,-0.18,-0.1837,-0.1913,-0.1878,-0.1917,-0.1919,-0.1898,-0.1901,-0.1922,-0.1903,-0.1904,-0.1937,-0.1937,-0.1936,-0.1936,0,0,0,0,0,0,0,-0.173,-0.1737,-0.1775,-0.1786,-0.1792,-0.1811,-0.182,-0.1808,-0.1883,-0.1881,-0.1887,-0.1882,-0.1902,-0.1923,-0.1923,-0.1904,-0.1937,-0.1936,-0.1936,-0.1936,-0.1946,-0.1947,0,0,0,0,0,0,-0.1706,-0.1734,-0.1773,-0.1777,-0.176,-0.181,-0.1821,-0.1836,-0.1884,-0.1892,-0.188,-0.1886,-0.1923,-0.1924,-0.1924,-0.1958,-0.1936,-0.1936,-0.1935,-0.1946,-0.1946,-0.1947,0,0,0,0,0,0,-0.1705,-0.1709,-0.177,-0.175,-0.1758,-0.1808,-0.1824,-0.1836,-0.187,-0.1883,-0.1891,-0.1903,-0.1924,-0.1925,-0.1941,-0.1956,-0.1935,-0.1935,-0.1945,-0.1946,-0.1947,-0.1976,0,0,0,0,0,0,-0.1703,-0.1709,-0.172,-0.1748,-0.1758,-0.179,-0.1822,-0.1836,-0.186,-0.1869,-0.1904,-0.1908,-0.1926,-0.1942,-0.1941,-0.1955,-0.1934,-0.1944,-0.1945,-0.1947,-0.1974,-0.1977,-0.1981,0,0,0,0,0,-0.1702,-0.1735,-0.1721,-0.1726,-0.177,-0.1789,-0.1797,-0.1842,-0.1859,-0.1879,-0.1909,-0.1908,-0.1949,-0.1942,-0.194,-0.1955,-0.1944,-0.1945,-0.1946,-0.1972,-0.1977,-0.198,0,0,0,0,0,0,-0.1725,-0.1747,-0.1734,-0.1772,-0.1771,-0.1804,-0.1823,-0.1839,-0.1879,-0.1893,-0.1909,-0.1915,-0.1945,-0.1935,-0.1926,-0.1962,-0.1948,-0.1949,-0.1968,-0.1972,-0.1975,-0.1967,-0.1934,0,0,0,0,0,-0.1722,-0.1763,-0.1753,-0.1784,-0.1771,-0.1786,-0.18,-0.1828,-0.1855,-0.1877,-0.1903,-0.1925,-0.1945,-0.1947,-0.197,-0.1967,-0.1949,-0.1977,-0.198,-0.1983,-0.1976,-0.197,-0.1972,-0.1952,-0.1952,-0.1952,0,0,-0.1724,-0.1756,-0.1766,-0.179,-0.1789,-0.1789,-0.1804,-0.1829,-0.1854,-0.1866,-0.192,-0.1942,-0.1951,-0.198,-0.1989,-0.1972,-0.1978,-0.1985,-0.1987,-0.1978,-0.1972,-0.1974,-0.1975,-0.1953,-0.1953,-0.1953,0,0,-0.1743,-0.1775,-0.1783,-0.1799,-0.1805,-0.1814,-0.1813,-0.1839,-0.1872,-0.1909,-0.1933,-0.1965,-0.1989,-0.2009,-0.2015,-0.2038,-0.2008,-0.2038,-0.2033,-0.2028,-0.2029,-0.203,-0.2003,-0.2001,-0.2025,-0.2025,-0.2025,0,-0.1737,-0.1766,-0.1786,-0.1804,-0.182,-0.1817,-0.1817,-0.1845,-0.1889,-0.1908,-0.1936,-0.1992,-0.2011,-0.2023,-0.2045,-0.2047,-0.2022,-0.2018,-0.2031,-0.2032,-0.2033,-0.2005,-0.2002,-0.2027,-0.2026,-0.2026,-0.2026,0,-0.1748,-0.1775,-0.1787,-0.1806,-0.1825,-0.1844,-0.1853,-0.1885,-0.192,-0.1945,-0.1991,-0.2026,-0.2053,-0.2066,-0.2065,-0.2069,-0.2043,-0.2048,-0.2019,-0.2036,-0.2006,-0.2003,-0.2029,-0.2028,-0.2028,-0.2027,0,0,-0.1712,-0.1774,-0.1778,-0.1792,-0.1841,-0.1853,-0.1889,-0.1904,-0.1928,-0.1981,-0.2013,-0.2061,-0.2071,-0.2077,-0.2077,-0.2069,-0.2064,-0.205,-0.2049,-0.2019,-0.2024,-0.1944,-0.1932,-0.2061,-0.206,-0.206,-0.1998,0,-0.1694,-0.1738,-0.1779,-0.1809,-0.1813,-0.186,-0.1894,-0.193,-0.1969,-0.2007,-0.2032,-0.2067,-0.2072,-0.2086,-0.2081,-0.2077,-0.2057,-0.2078,-0.2015,-0.2012,-0.1937,-0.1928,-0.1772,-0.1697,-0.1995,-0.1995,-0.1994,0,-0.1668,-0.1716,-0.1742,-0.1818,-0.1818,-0.1843,-0.1903,-0.1937,-0.1983,-0.2019,-0.2045,-0.2065,-0.2069,-0.2079,-0.2056,-0.2061,-0.2039,-0.203,-0.2028,-0.1938,-0.1927,-0.173,-0.168,-0.1989,-0.1989,-0.199,-0.199,0,-0.1628,-0.1688,-0.172,-0.1752,-0.1824,-0.1849,-0.1879,-0.1935,-0.1963,-0.201,-0.2036,-0.2049,-0.206,-0.2043,-0.203,-0.2037,-0.1996,-0.2009,-0.1909,-0.1903,-0.175,-0.173,-0.1982,-0.1982,-0.1982,-0.1982,-0.1982,0,-0.1613,-0.1636,-0.1704,-0.1731,-0.1761,-0.1827,-0.1858,-0.1899,-0.1953,-0.1969,-0.2022,-0.2028,-0.205,-0.2035,-0.2018,-0.1943,-0.1984,-0.1895,-0.1879,-0.1754,-0.1737,-0.1979,-0.1979,-0.198,-0.198,-0.1981,-0.1981,0,-0.1557,-0.1611,-0.1644,-0.172,-0.174,-0.176,-0.1825,-0.1844,-0.1912,-0.1935,-0.1946,-0.2,-0.1972,-0.1974,-0.1948,-0.1915,-0.1868,-0.183,-0.1671,-0.1637,-0.1778,-0.1781,-0.1705,-0.1702,-0.1699,-0.1697,-0.1695,0,-0.1529,-0.1544,-0.1612,-0.1622,-0.1651,-0.1693,-0.1714,-0.1801,-0.1821,-0.1901,-0.1895,-0.1905,-0.1869,-0.1806,-0.1746,-0.1673,-0.1768,-0.1507,-0.1501,-0.1756,-0.1749,-0.1756,-0.1763,-0.1307,-0.1302,-0.1298,-0.1295,0,-0.1465,-0.149,-0.1516,-0.1537,-0.1558,-0.1588,-0.1627,-0.1641,-0.1735,-0.1757,-0.1767,-0.1749,-0.1689,-0.1541,-0.1468,-0.1418,-0.151,-0.142,-0.1717,-0.1408,-0.1377,-0.1372,-0.1392,-0.1258,-0.1262,-0.1265,-0.1267,-0.1268,-0.1396,-0.1391,-0.1418,-0.1427,-0.1451,-0.146,-0.1444,-0.1489,-0.1504,-0.1503,-0.1571,-0.1486,-0.1468,-0.1253,-0.1178,-0.1128,-0.1243,-0.1197,-0.1211,-0.1229,-0.1201,-0.1167,-0.1002,-0.1004,-0.1006,-0.1008,-0.1009,0,-0.1295,-0.1301,-0.1303,-0.1312,-0.129,-0.1344,-0.136,-0.1322,-0.1285,-0.1292,-0.1262,-0.1105,-0.0984,-0.0978,-0.0824,-0.08,-0.0811,-0.0779,-0.0792,-0.0827,-0.0859,-0.0815,-0.0512,-0.0511,-0.051,-0.0509,0,0,-0.124,-0.1207,-0.121,-0.1144,-0.1146,-0.1086,-0.1069,-0.1025,-0.1,-0.092,-0.0864,-0.0904,-0.0923,-0.0716,-0.0668,-0.0561,-0.0693,-0.0527,-0.092,-0.0969,-0.0999,-0.1086,-0.1055,0,0,0,0,0]},{"header":{"parameterUnit":"m.s-1","parameterCategory":2,"la1":30.2991,"la2":30.254,"lo1":-89.0895,"lo2":-89.0444,"dy":0.0017,"dx":0.0017,"nx":28,"ny":28,"refTime":"2025-02-28T09:00:00:Z","depth":"2","parameterNumber":3,"parameterNumberName":"V-component_of_CURRENTS"},"data":[0,0,0,0,0,0,0,0,0,0,0,0,0,0,0,0,0,0,0,0,0,0,0,0,0,0,0,0,0,0,0,0,0,0,0,0,0,0,0,0,0,0,0,0,0,0,0,0,0,0,0,0,0,0,0,0,0,0,-0.0174,-0.0174,0,-0.0103,-0.0102,-0.0101,0.0,0.0002,0.0003,0.0004,0.0147,0.015,0.0153,0,0,0,0,0,0,0,0,0,0,0,0,0,-0.0191,-0.019,-0.0174,-0.0174,-0.0173,-0.0103,-0.0102,-0.01,0.0,0.0002,0.0003,0.0005,0.0147,0.015,0.0153,0,0,0,0,0,0,0,0,0,0,0,0,0,-0.0153,-0.019,-0.0174,-0.0118,-0.0113,-0.0104,-0.0102,-0.01,-0.0,0.0002,0.0004,0.0005,0.0146,0.0149,0.0153,0.0141,0,0,0.0166,0.0167,0,0,0,0,0,0,0,0,-0.0155,-0.0152,-0.0127,-0.0122,-0.0116,-0.0063,-0.0055,-0.0018,-0.0001,-0.0037,0.0004,0.0006,0.0079,0.0088,0.0104,0.0147,0.0154,0.0166,0.0168,0.017,0.0171,0,0,0,0,0,0,0,-0.0158,-0.0154,-0.014,-0.0127,-0.0121,-0.0087,-0.0079,-0.0048,0.0015,-0.0034,-0.0028,-0.0029,0.0083,0.01,0.0109,0.0156,0.0166,0.0169,0.0172,0.0173,0.0247,0.0246,0,0,0,0,0,0,-0.0182,-0.0157,-0.0143,-0.0139,-0.0138,-0.0089,-0.008,-0.0078,0.0013,0.0027,-0.0031,-0.0025,0.0092,0.0104,0.0114,0.0133,0.017,0.0174,0.0176,0.0247,0.0247,0.0246,0,0,0,0,0,0,-0.0182,-0.0181,-0.0146,-0.015,-0.0144,-0.0091,-0.0089,-0.0077,-0.0051,0.0014,0.003,-0.0016,0.0094,0.0108,0.0149,0.0138,0.0176,0.0179,0.0248,0.0247,0.0246,0.0152,0,0,0,0,0,0,-0.0183,-0.0181,-0.0185,-0.0152,-0.0145,-0.0141,-0.0091,-0.0077,-0.0058,-0.0049,0.0031,0.0046,0.0097,0.0143,0.0153,0.0144,0.0182,0.0248,0.0247,0.0246,0.0155,0.0148,0.0141,0,0,0,0,0,-0.0184,-0.0187,-0.0185,-0.0184,-0.0152,-0.0142,-0.0135,-0.0087,-0.006,-0.0054,0.0003,0.0044,0.0145,0.0145,0.0158,0.015,0.0249,0.0248,0.0247,0.0158,0.0149,0.0141,0,0,0,0,0,0,-0.0192,-0.0178,-0.0174,-0.0173,-0.0166,-0.0127,-0.012,-0.0095,-0.0047,-0.003,0.0036,0.0054,0.009,0.0128,0.0126,0.0169,0.0204,0.0205,0.0133,0.0125,0.0118,0.0117,0.0186,0,0,0,0,0,-0.0204,-0.0199,-0.0191,-0.0191,-0.0194,-0.0163,-0.0152,-0.0122,-0.0082,-0.0058,-0.0004,0.0052,0.0091,0.0114,0.0162,0.0175,0.0219,0.018,0.0173,0.0167,0.0175,0.0222,0.022,0.0243,0.0243,0.0243,0,0,-0.0213,-0.02,-0.0202,-0.0193,-0.0183,-0.0192,-0.0149,-0.0135,-0.0129,-0.0053,-0.0016,0.0033,0.0091,0.0118,0.0136,0.0149,0.0179,0.0166,0.016,0.0171,0.0221,0.0218,0.0216,0.0242,0.0242,0.0242,0,0,-0.0236,-0.022,-0.0236,-0.0231,-0.0222,-0.0204,-0.0207,-0.0174,-0.0144,-0.0117,-0.0059,-0.0017,0.0043,0.0083,0.0108,0.0088,0.0145,0.0098,0.0057,0.0101,0.01,0.0099,0.0133,0.0136,0.0089,0.0089,0.0088,0,-0.0251,-0.0263,-0.024,-0.0253,-0.0252,-0.0218,-0.0239,-0.0213,-0.0163,-0.0141,-0.0112,-0.0021,0.0028,0.0054,0.0051,0.0073,0.0104,0.0079,0.0091,0.0092,0.0093,0.0128,0.0133,0.0084,0.0084,0.0085,0.0085,0,-0.0292,-0.03,-0.0307,-0.0315,-0.0311,-0.0314,-0.0294,-0.0273,-0.0234,-0.02,-0.0152,-0.0088,-0.0031,-0.0021,0.0011,0.0032,0.0053,0.0079,0.0109,0.0085,0.0123,0.013,0.0077,0.0079,0.008,0.0081,0,0,-0.0332,-0.0339,-0.0341,-0.0353,-0.0337,-0.0339,-0.0333,-0.0318,-0.0303,-0.0248,-0.0222,-0.0163,-0.0117,-0.0085,-0.0045,-0.0013,0.0013,0.0027,0.0031,0.0053,0.0103,0.0125,0.0135,0.0037,0.0038,0.0039,0.012,0,-0.0377,-0.0414,-0.0399,-0.043,-0.0451,-0.0412,-0.041,-0.0379,-0.0335,-0.0296,-0.0231,-0.0186,-0.0148,-0.0122,-0.0085,-0.0003,0.0029,-0.0012,0.0131,0.0135,0.0152,0.0143,0.013,0.0203,0.0127,0.0128,0.0129,0,-0.0428,-0.044,-0.0483,-0.0483,-0.0489,-0.0496,-0.0473,-0.0463,-0.0402,-0.0363,-0.0308,-0.0245,-0.0189,-0.0149,-0.0033,-0.0063,0.0014,0.0074,0.0079,0.0143,0.0171,0.022,0.0218,0.0141,0.014,0.0139,0.0138,0,-0.0469,-0.0495,-0.0526,-0.0527,-0.0528,-0.053,-0.0524,-0.0479,-0.0468,-0.0401,-0.0373,-0.0291,-0.0241,-0.0144,-0.0016,-0.0023,0.012,0.013,0.022,0.0222,0.0264,0.0268,0.0219,0.0219,0.0219,0.0218,0.0218,0,-0.0513,-0.0537,-0.0548,-0.0563,-0.0593,-0.057,-0.058,-0.0557,-0.0516,-0.0499,-0.041,-0.0373,-0.0234,-0.0133,-0.0026,0.0119,0.0117,0.022,0.0249,0.0228,0.0228,0.0223,0.0222,0.0221,0.0221,0.022,0.022,0,-0.0552,-0.0562,-0.0598,-0.0609,-0.0615,-0.0633,-0.0635,-0.0635,-0.0588,-0.0562,-0.0544,-0.0428,-0.0293,-0.015,0.0022,0.011,0.0244,0.0298,0.0259,0.0282,0.0315,0.0309,0.0397,0.0399,0.04,0.0401,0.0402,0,-0.0577,-0.0599,-0.0635,-0.0663,-0.0671,-0.0692,-0.0706,-0.0678,-0.0673,-0.0594,-0.0583,-0.0447,-0.0334,-0.0079,0.0097,0.0288,0.0291,0.0383,0.0373,0.0316,0.0336,0.0327,0.0319,0.0385,0.0385,0.0386,0.0387,0,-0.0613,-0.0625,-0.0655,-0.0715,-0.0745,-0.0775,-0.0787,-0.0798,-0.0752,-0.0705,-0.0614,-0.0512,-0.0265,-0.0046,0.0197,0.0305,0.0348,0.0401,0.0369,0.0337,0.031,0.0327,0.0319,0.0392,0.0391,0.0391,0.0391,0.039,-0.0632,-0.0668,-0.0709,-0.0764,-0.0806,-0.0844,-0.0861,-0.0846,-0.0824,-0.0728,-0.0633,-0.0428,-0.0244,0.013,0.0273,0.0416,0.0413,0.0458,0.0454,0.045,0.043,0.0406,0.0502,0.0502,0.0502,0.0502,0.0502,0,-0.0654,-0.0696,-0.0754,-0.082,-0.0871,-0.0878,-0.0903,-0.0884,-0.0839,-0.0705,-0.0571,-0.0305,-0.0056,0.0142,0.0371,0.049,0.0472,0.0509,0.0462,0.0457,0.0452,0.0429,0.0503,0.0503,0.0503,0.0503,0,0,-0.0668,-0.0726,-0.0761,-0.0854,-0.09,-0.094,-0.095,-0.089,-0.0789,-0.0638,-0.0458,-0.0245,-0.0007,0.0154,0.0291,0.0406,0.0396,0.0415,0.0404,0.0325,0.0319,0.0416,0.0375,0,0,0,0,0]}],[{"header":{"parameterUnit":"m.s-1","parameterCategory":2,"la1":30.2991,"la2":30.254,"lo1":-89.0895,"lo2":-89.0444,"dy":0.0017,"dx":0.0017,"nx":28,"ny":28,"refTime":"2025-02-28T09:00:00:Z","depth":"4","parameterNumber":2,"parameterNumberName":"U-component_of_CURRENTS"},"data":[0,0,0,0,0,0,0,0,0,0,0,0,0,0,0,0,0,0,0,0,0,0,0,0,0,0,0,0,0,0,0,0,0,0,0,0,0,0,0,0,0,0,0,0,0,0,0,0,0,0,0,0,0,0,0,0,0,0,-0.0963,-0.0964,0,-0.1021,-0.1021,-0.1022,-0.104,-0.104,-0.104,-0.1039,-0.1082,-0.1083,-0.1084,0,0,0,0,0,0,0,0,0,0,0,0,0,-0.0897,-0.0897,-0.0963,-0.0964,-0.0965,-0.1021,-0.1021,-0.1022,-0.104,-0.104,-0.1039,-0.1039,-0.1081,-0.1083,-0.1084,0,0,0,0,0,0,0,0,0,0,0,0,0,-0.0936,-0.0898,-0.0963,-0.0981,-0.0983,-0.1021,-0.1022,-0.1022,-0.104,-0.104,-0.1039,-0.1039,-0.1081,-0.1083,-0.1084,-0.1102,0,0,-0.109,-0.1091,0,0,0,0,0,0,0,0,-0.0934,-0.0938,-0.0978,-0.098,-0.0983,-0.1024,-0.1014,-0.1049,-0.104,-0.1017,-0.1039,-0.1039,-0.1062,-0.1065,-0.1075,-0.1104,-0.1106,-0.1091,-0.1092,-0.1093,-0.1093,0,0,0,0,0,0,0,-0.0931,-0.0936,-0.0985,-0.0978,-0.0982,-0.0996,-0.1001,-0.102,-0.1039,-0.1019,-0.1021,-0.1029,-0.1063,-0.1073,-0.1076,-0.1106,-0.1091,-0.1092,-0.1093,-0.1094,-0.1205,-0.1207,0,0,0,0,0,0,-0.0925,-0.0933,-0.0983,-0.0987,-0.0958,-0.0998,-0.1003,-0.101,-0.1039,-0.1044,-0.1029,-0.103,-0.107,-0.1074,-0.1078,-0.1144,-0.1093,-0.1094,-0.1096,-0.1203,-0.1205,-0.1207,0,0,0,0,0,0,-0.0923,-0.0929,-0.0981,-0.0962,-0.097,-0.0999,-0.1007,-0.1011,-0.1035,-0.1048,-0.1052,-0.105,-0.107,-0.1075,-0.1116,-0.1144,-0.1095,-0.1097,-0.1201,-0.1204,-0.1206,-0.1247,0,0,0,0,0,0,-0.0921,-0.0928,-0.094,-0.0962,-0.0971,-0.1011,-0.1007,-0.1013,-0.1041,-0.1042,-0.1067,-0.107,-0.107,-0.1113,-0.1118,-0.1145,-0.1099,-0.1199,-0.1202,-0.1205,-0.1244,-0.1251,-0.1257,0,0,0,0,0,-0.0918,-0.0931,-0.094,-0.0947,-0.0984,-0.1012,-0.1018,-0.1037,-0.1042,-0.1057,-0.108,-0.1069,-0.1137,-0.1116,-0.1121,-0.115,-0.1197,-0.1201,-0.1205,-0.1241,-0.1249,-0.1257,0,0,0,0,0,0,-0.091,-0.0934,-0.0945,-0.0965,-0.0992,-0.1015,-0.1035,-0.1047,-0.1078,-0.1085,-0.1092,-0.1097,-0.1144,-0.1145,-0.1121,-0.1194,-0.1166,-0.1171,-0.1191,-0.12,-0.1206,-0.1207,-0.11,0,0,0,0,0,-0.0914,-0.0925,-0.0956,-0.0971,-0.099,-0.1016,-0.1034,-0.1049,-0.1075,-0.1088,-0.1111,-0.1136,-0.1163,-0.1179,-0.1203,-0.1241,-0.1237,-0.1265,-0.1271,-0.1277,-0.1283,-0.1317,-0.1327,-0.122,-0.122,-0.122,0,0,-0.0915,-0.0929,-0.0937,-0.097,-0.0994,-0.1031,-0.1027,-0.1059,-0.1094,-0.1088,-0.1147,-0.1163,-0.118,-0.1226,-0.1246,-0.123,-0.1302,-0.1282,-0.1287,-0.129,-0.1322,-0.1333,-0.1342,-0.1223,-0.1223,-0.1222,0,0,-0.0923,-0.0938,-0.0958,-0.0985,-0.1025,-0.1046,-0.106,-0.1101,-0.1125,-0.1178,-0.1186,-0.122,-0.1265,-0.1283,-0.1296,-0.1357,-0.1339,-0.1366,-0.1399,-0.1432,-0.1441,-0.1449,-0.1437,-0.1443,-0.1367,-0.1367,-0.1367,0,-0.0929,-0.0956,-0.097,-0.1004,-0.1033,-0.1057,-0.1098,-0.1128,-0.1179,-0.1207,-0.1204,-0.1286,-0.1294,-0.1349,-0.1366,-0.1371,-0.1373,-0.1363,-0.144,-0.1448,-0.1455,-0.1441,-0.1448,-0.137,-0.1369,-0.1369,-0.1369,0,-0.0954,-0.0988,-0.1004,-0.1055,-0.1088,-0.1122,-0.1169,-0.1212,-0.1244,-0.1272,-0.134,-0.1359,-0.1404,-0.1413,-0.1406,-0.1466,-0.1443,-0.1444,-0.1414,-0.1468,-0.145,-0.1456,-0.1373,-0.1372,-0.1372,-0.1371,0,0,-0.0939,-0.101,-0.1019,-0.1062,-0.1119,-0.1154,-0.1215,-0.1279,-0.1329,-0.1374,-0.1435,-0.1476,-0.1483,-0.1499,-0.15,-0.1523,-0.1559,-0.1505,-0.1506,-0.1484,-0.1606,-0.147,-0.1463,-0.1578,-0.158,-0.1581,-0.1565,0,-0.0962,-0.1034,-0.1061,-0.1141,-0.119,-0.1233,-0.129,-0.135,-0.1395,-0.1459,-0.1484,-0.1537,-0.1517,-0.154,-0.1563,-0.1565,-0.1581,-0.1562,-0.1566,-0.1565,-0.1431,-0.1468,-0.1587,-0.1569,-0.1571,-0.1572,-0.1572,0,-0.098,-0.1031,-0.1111,-0.1203,-0.1229,-0.1281,-0.138,-0.1431,-0.1508,-0.1542,-0.1592,-0.1608,-0.1646,-0.1625,-0.1653,-0.1643,-0.1631,-0.1625,-0.1624,-0.1489,-0.1441,-0.1512,-0.1583,-0.1582,-0.1581,-0.158,-0.158,0,-0.0971,-0.1065,-0.1132,-0.1164,-0.1269,-0.1321,-0.1378,-0.1461,-0.1504,-0.1593,-0.1623,-0.1679,-0.1696,-0.1713,-0.168,-0.168,-0.1696,-0.1694,-0.156,-0.1549,-0.1657,-0.1649,-0.1726,-0.1726,-0.1726,-0.1726,-0.1726,0,-0.0976,-0.1035,-0.114,-0.1182,-0.1265,-0.1339,-0.1422,-0.1485,-0.1562,-0.1596,-0.166,-0.1676,-0.1722,-0.1724,-0.1706,-0.163,-0.1715,-0.1565,-0.1544,-0.1671,-0.1666,-0.1659,-0.1651,-0.1726,-0.1726,-0.1726,-0.1726,0,-0.0951,-0.1019,-0.1104,-0.1225,-0.1263,-0.1324,-0.1424,-0.1469,-0.1556,-0.1601,-0.1624,-0.1681,-0.1667,-0.1682,-0.169,-0.1633,-0.1598,-0.1554,-0.1661,-0.1646,-0.1422,-0.1418,-0.1408,-0.1403,-0.1399,-0.1396,-0.1393,0,-0.0942,-0.0987,-0.1115,-0.115,-0.1205,-0.1297,-0.134,-0.1449,-0.1477,-0.1572,-0.1569,-0.16,-0.1614,-0.1507,-0.1545,-0.1501,-0.1484,-0.1462,-0.1467,-0.1413,-0.1394,-0.1396,-0.1396,-0.1386,-0.1385,-0.1384,-0.1383,0,-0.092,-0.0971,-0.103,-0.1099,-0.1158,-0.1217,-0.1287,-0.1299,-0.1399,-0.1492,-0.1464,-0.1452,-0.1428,-0.141,-0.138,-0.1355,-0.1479,-0.142,-0.1428,-0.1433,-0.1387,-0.1373,-0.1378,-0.1369,-0.1371,-0.1373,-0.1373,0,-0.0887,-0.0909,-0.0976,-0.1024,-0.1085,-0.1103,-0.1165,-0.1185,-0.123,-0.1332,-0.1311,-0.1345,-0.14,-0.1331,-0.1307,-0.1266,-0.125,-0.122,-0.1239,-0.1255,-0.1212,-0.1132,-0.1016,0,0,0,0,0,-0.0845,-0.085,-0.0888,-0.0933,-0.0983,-0.1018,-0.1102,-0.116,-0.1257,-0.1194,-0.125,-0.1218,-0.1178,-0.1198,-0.112,-0.1239,-0.1259,-0.1145,-0.1236,-0.1292,-0.1308,-0.1271,0,0,0,0,0,0,-0.0811,-0.0846,-0.0855,-0.0835,-0.0838,-0.0887,-0.0933,-0.1007,-0.0982,-0.1079,-0.1055,-0.1133,-0.1104,-0.1186,-0.1088,-0.1094,-0.1125,-0.1173,-0.117,-0.1283,-0.1297,-0.131,-0.1278,0,0,0,0,0]},{"header":{"parameterUnit":"m.s-1","parameterCategory":2,"la1":30.2991,"la2":30.254,"lo1":-89.0895,"lo2":-89.0444,"dy":0.0017,"dx":0.0017,"nx":28,"ny":28,"refTime":"2025-02-28T09:00:00:Z","depth":"4","parameterNumber":3,"parameterNumberName":"V-component_of_CURRENTS"},"data":[0,0,0,0,0,0,0,0,0,0,0,0,0,0,0,0,0,0,0,0,0,0,0,0,0,0,0,0,0,0,0,0,0,0,0,0,0,0,0,0,0,0,0,0,0,0,0,0,0,0,0,0,0,0,0,0,0,0,-0.0252,-0.0251,0,-0.0233,-0.0233,-0.0233,-0.0221,-0.0221,-0.0221,-0.0221,-0.0157,-0.0156,-0.0154,0,0,0,0,0,0,0,0,0,0,0,0,0,-0.0233,-0.0233,-0.0252,-0.0251,-0.0251,-0.0233,-0.0233,-0.0233,-0.0221,-0.0221,-0.0221,-0.0221,-0.0158,-0.0156,-0.0154,0,0,0,0,0,0,0,0,0,0,0,0,0,-0.023,-0.0233,-0.0252,-0.0244,-0.0243,-0.0233,-0.0233,-0.0233,-0.0221,-0.0221,-0.0221,-0.0221,-0.0159,-0.0156,-0.0154,-0.0139,0,0,-0.0146,-0.0145,0,0,0,0,0,0,0,0,-0.023,-0.023,-0.0245,-0.0244,-0.0243,-0.023,-0.0203,-0.0199,-0.0221,-0.0228,-0.0221,-0.0221,-0.0178,-0.0174,-0.017,-0.0136,-0.0133,-0.0146,-0.0144,-0.0143,-0.0142,0,0,0,0,0,0,0,-0.023,-0.0231,-0.0244,-0.0245,-0.0244,-0.0226,-0.0226,-0.0202,-0.0202,-0.0228,-0.0227,-0.0226,-0.0177,-0.0173,-0.0168,-0.0132,-0.0146,-0.0144,-0.0142,-0.0141,-0.0079,-0.0078,0,0,0,0,0,0,-0.0236,-0.0231,-0.0244,-0.0243,-0.0237,-0.0226,-0.0226,-0.0234,-0.0203,-0.0199,-0.0226,-0.0225,-0.0177,-0.0171,-0.0166,-0.0159,-0.0143,-0.0141,-0.0139,-0.0079,-0.0079,-0.0078,0,0,0,0,0,0,-0.0236,-0.0238,-0.0245,-0.0237,-0.0236,-0.0227,-0.0235,-0.0233,-0.0231,-0.0203,-0.0198,-0.0226,-0.0177,-0.017,-0.0152,-0.0156,-0.014,-0.0137,-0.0079,-0.0079,-0.0079,-0.0136,0,0,0,0,0,0,-0.0236,-0.0238,-0.0245,-0.0238,-0.0237,-0.0247,-0.0235,-0.0233,-0.023,-0.0229,-0.0201,-0.0195,-0.0176,-0.0156,-0.015,-0.0152,-0.0136,-0.0079,-0.0079,-0.0079,-0.0134,-0.0138,-0.0141,0,0,0,0,0,-0.0235,-0.0248,-0.0245,-0.0247,-0.0247,-0.0247,-0.0245,-0.0237,-0.023,-0.0234,-0.0215,-0.0196,-0.0149,-0.0154,-0.0147,-0.0148,-0.0079,-0.0079,-0.0079,-0.0133,-0.0137,-0.0141,0,0,0,0,0,0,-0.0242,-0.0248,-0.0245,-0.0258,-0.0255,-0.0245,-0.0247,-0.024,-0.0227,-0.0224,-0.0197,-0.019,-0.0174,-0.0151,-0.0157,-0.0127,-0.0109,-0.0107,-0.0153,-0.0157,-0.016,-0.0159,-0.0133,0,0,0,0,0,-0.0247,-0.0261,-0.0257,-0.0268,-0.0266,-0.0256,-0.0253,-0.0249,-0.0238,-0.0233,-0.0212,-0.0186,-0.0166,-0.0155,-0.0132,-0.0117,-0.0079,-0.0111,-0.0114,-0.0117,-0.011,-0.0052,-0.0049,-0.0077,-0.0077,-0.0077,0,0,-0.0253,-0.0258,-0.0265,-0.027,-0.0265,-0.027,-0.0254,-0.0256,-0.0257,-0.0226,-0.0218,-0.0196,-0.0164,-0.0152,-0.0142,-0.0134,-0.0092,-0.0116,-0.012,-0.011,-0.0051,-0.0048,-0.0046,-0.0077,-0.0077,-0.0077,0,0,-0.0271,-0.0275,-0.0289,-0.0289,-0.0288,-0.0282,-0.0284,-0.0274,-0.0267,-0.0259,-0.0236,-0.0218,-0.0186,-0.0168,-0.0153,-0.0157,-0.0111,-0.0147,-0.0164,-0.0108,-0.0105,-0.0102,-0.0067,-0.006,-0.0149,-0.0149,-0.0149,0,-0.0276,-0.0296,-0.0292,-0.0303,-0.0305,-0.0289,-0.03,-0.0291,-0.0277,-0.0267,-0.0263,-0.0213,-0.0194,-0.0172,-0.0178,-0.0165,-0.0127,-0.0157,-0.0113,-0.0109,-0.0105,-0.0068,-0.006,-0.0152,-0.0152,-0.0151,-0.0151,0,-0.0301,-0.0316,-0.0323,-0.0334,-0.0336,-0.0343,-0.0332,-0.0327,-0.0315,-0.0299,-0.0274,-0.0247,-0.0215,-0.0211,-0.0198,-0.0163,-0.0145,-0.0125,-0.0107,-0.0106,-0.0067,-0.0058,-0.0156,-0.0155,-0.0154,-0.0153,0,0,-0.0312,-0.0337,-0.034,-0.0352,-0.0354,-0.0359,-0.0358,-0.0349,-0.034,-0.0319,-0.03,-0.0277,-0.0251,-0.0232,-0.021,-0.0171,-0.0126,-0.014,-0.0136,-0.0111,-0.0009,-0.002,-0.001,-0.0094,-0.0092,-0.0091,-0.0,0,-0.0331,-0.0366,-0.0369,-0.0394,-0.0408,-0.0396,-0.0398,-0.0385,-0.0363,-0.0337,-0.03,-0.0274,-0.0261,-0.0248,-0.0206,-0.0144,-0.01,-0.0153,-0.0007,-0.0003,-0.0018,0.0001,-0.0085,0.0007,0.001,0.0011,0.0012,0,-0.0353,-0.0373,-0.0407,-0.0428,-0.0431,-0.0442,-0.0435,-0.0432,-0.039,-0.037,-0.0331,-0.0292,-0.0244,-0.0227,-0.0116,-0.0147,-0.0078,-0.003,-0.0024,-0.0004,0.0005,0.0013,0.003,0.0029,0.0028,0.0026,0.0025,0,-0.0369,-0.04,-0.0431,-0.0439,-0.0455,-0.0464,-0.0468,-0.0442,-0.0438,-0.0385,-0.0368,-0.0296,-0.0263,-0.0167,-0.0078,-0.0085,0.0055,0.006,0.0116,0.0116,0.0123,0.0119,0.0161,0.0161,0.016,0.016,0.016,0,-0.039,-0.0415,-0.0444,-0.0461,-0.0492,-0.0489,-0.0502,-0.0491,-0.0464,-0.0451,-0.0385,-0.0355,-0.0241,-0.0153,-0.0066,0.0049,0.007,0.0123,0.0146,0.0094,0.0086,0.0129,0.0124,0.0163,0.0163,0.0162,0.0161,0,-0.0407,-0.0428,-0.0466,-0.0493,-0.0506,-0.0526,-0.0546,-0.0547,-0.0516,-0.0495,-0.048,-0.039,-0.0276,-0.0161,-0.0005,0.0055,0.017,0.0211,0.0137,0.0153,0.0189,0.0181,0.0282,0.0282,0.0283,0.0283,0.0283,0,-0.042,-0.0442,-0.0494,-0.0523,-0.0542,-0.0571,-0.059,-0.058,-0.0576,-0.0517,-0.0505,-0.0396,-0.0323,-0.0109,0.0005,0.0179,0.0202,0.0256,0.0231,0.0193,0.0206,0.0196,0.0187,0.0284,0.0284,0.0284,0.0285,0,-0.0437,-0.0459,-0.049,-0.0553,-0.0591,-0.0624,-0.0646,-0.0649,-0.0621,-0.0597,-0.0504,-0.039,-0.0258,-0.0106,0.0032,0.0153,0.0215,0.0261,0.0261,0.0238,0.0197,0.0207,0.0198,0.0286,0.0286,0.0286,0.0286,0,-0.0446,-0.0475,-0.0522,-0.0573,-0.0627,-0.0659,-0.067,-0.0651,-0.0639,-0.0567,-0.0537,-0.0387,-0.0299,-0.0119,0.0004,0.0124,0.0149,0.0178,0.0183,0.0182,0.0119,0.0051,0.0124,0,0,0,0,0,-0.045,-0.0485,-0.0538,-0.0596,-0.0649,-0.0674,-0.0698,-0.0695,-0.067,-0.0604,-0.0565,-0.0436,-0.0237,-0.0151,-0.003,-0.0006,0.0151,0.0135,0.0182,0.0295,0.0293,0.0234,0,0,0,0,0,0,-0.0456,-0.0506,-0.0535,-0.06,-0.064,-0.069,-0.0705,-0.0689,-0.0642,-0.0597,-0.0486,-0.0416,-0.0222,-0.0299,-0.0028,0.0006,0.0049,0.0233,0.0235,0.0296,0.0294,0.0293,0.0232,0,0,0,0,0]}]]